Flag Weather past 2 weeks in Rarotonga, Cook Islands

Now
79 °F

Passing clouds.


Feels Like: 82 °F
Forecast: 77 / 83 °F
Wind: 13 mph from Northwest

Location: Rarotonga

Current Time: Nov 28, 2014 at 10:02:07 PM

Latest Report: Nov 28, 2014 at 9:00 PM


Visibility: N/A

Pressure: 29.71 "Hg

Humidity: 89%

Dew point: 75 °F

Location of RarotongaLocation

Historic Weather in Rarotonga — Graph

°F

Rarotonga temperature yesterday

Maximum temperature yesterday: 86 °F (at 4:00 PM)
Minimum temperature yesterday: 75 °F (at 1:00 AM)
Average temperature yesterday: 80 °F

Past Weeks' High & Low Weather Summary

 TemperatureHumidityPressure
High88 °F (Nov 28, 1:00 PM)100% (Nov 20, 12:00 AM)30.07 "Hg (Nov 20, 12:00 AM)
Low70 °F (Nov 14, 12:00 AM)62% (Nov 17, 1:00 PM)29.65 "Hg (Nov 28, 2:00 PM)
Average78 °F85%29.88 "Hg
* Reported Nov 13 9:00 PM — Nov 28 9:00 PM, Rarotonga, Weather by CustomWeather, © 2014

Note: Actual official high and low records may vary slightly from our data, if they occured in-between our weather recording intervals... More about our weather records

Advertising

Rarotonga weather history for previous 24 hours

 ConditionsComfort  
Time TempWeatherWind HumidityBarometerVisibility
9:00 PM
Nov 28
79 °FPassing clouds.13 mph89%29.71 "HgN/A
8:00 PM79 °FPassing clouds.13 mph89%29.71 "HgN/A
7:00 PM79 °FPartly sunny.12 mph89%29.68 "HgN/A
6:00 PM82 °FPassing clouds.12 mph79%29.68 "HgN/A
5:00 PM82 °FPassing clouds.13 mph79%29.68 "HgN/A
4:00 PM84 °FPassing clouds.8 mph84%29.65 "HgN/A
3:00 PM84 °FScattered clouds.8 mph84%29.65 "HgN/A
2:00 PM88 °FScattered clouds.15 mph84%29.65 "HgN/A
1:00 PM88 °FScattered clouds.10 mph84%29.68 "HgN/A
12:00 PM86 °FScattered clouds.12 mph84%29.71 "HgN/A
11:00 AM86 °FBroken clouds.13 mph84%29.71 "HgN/A
10:00 AM82 °FScattered clouds.10 mph89%29.71 "HgN/A
9:00 AM82 °FScattered clouds.12 mph89%29.71 "HgN/A
8:00 AM84 °FScattered clouds.6 mph89%29.71 "HgN/A
7:00 AM79 °FPassing clouds.6 mph89%29.71 "HgN/A
6:00 AM79 °FScattered clouds.7 mph89%29.71 "HgN/A
5:00 AM79 °FPassing clouds.7 mph89%29.68 "HgN/A
4:00 AM77 °FPassing clouds.7 mph94%29.68 "HgN/A
3:00 AM77 °FPassing clouds.7 mph94%29.68 "HgN/A
2:00 AM77 °FPassing clouds.7 mph94%29.71 "HgN/A
1:00 AM77 °FPartly cloudy.2 mph94%29.71 "HgN/A
12:00 AM77 °FPartly cloudy.6 mph94%29.74 "HgN/A
10:00 PM
Nov 27
79 °FPassing clouds.7 mph94%29.74 "HgN/A
Weather by CustomWeather, © 2014

See weather overviewHow to use our weather pages